Location: Callanans Corners
(42.5326°N, 73.8846°W)
Time: 14:44:40
(UTC+00:00)

BREEZE M DEB (TANK) - Pass Details

Date: 06 October 2022
Orbit: 296 x 11714 km, 49.5° (Epoch: 28 November)

Event Time Altitude Azimuth Distance (km) Brightness Sun altitude
Rises 22:44:40 0° 221° (SW) 7,723 8.9 -3.8°
Reaches altitude 10° 22:51:52 10° 217° (SW) 4,986 7.8 -5.2°
Maximum altitude 23:01:42 44° 150° (SSE) 1,217 3.9 -7.0°
Drops below altitude 10° 23:05:13 10° 77° (ENE) 1,794 4.3 -7.6°
Enters shadow 23:05:20 - 76° (ENE) 1,839 4.4 -7.7°
